RH
56 56 55 51 47 45 44 45 47 48 50 51 53 58 63 66 67 68 69 70 71 71 68 61 48 34 22 10 3 2 2 2 3 3 4 5 6 7 8 8 8 8 7 7 7 7 6 6 6 6 6 6 7 7 8 9 9 10 11 13 14 15 15 14 12 11 14 19 21 22 24 27 31 35 35 36 37 38 40 41 42 43 42 41 45
55 60 60 58 54 50 46 46 47 49 50 50 53 58 63 67 68 69 71 72 73 74 73 67 55 41 27 12 4 2 2 2 3 4 5 5 7 8 9 9 9 8 8 8 7 7 7 6 6 6 6 6 7 7 8 8 9 10 10 12 14 15 16 16 14 12 11 15 19 20 22 25 30 34 35 36 36 36 38 42 43 43 43 42 44
52 58 61 62 62 58 54 50 49 49 50 51 54 58 64 68 69 71 73 74 75 77 77 73 62 48 31 14 5 3 2 3 3 4 5 6 7 9 9 9 9 9 8 8 8 7 7 6 6 6 7 7 7 7 8 8 9 10 10 11 12 15 17 18 17 15 12 13 16 18 20 23 27 32 34 35 37 37 38 40 41 42 43 43 45
44 51 57 63 65 64 61 58 54 52 52 54 56 60 65 69 71 72 75 76 77 79 81 78 68 52 34 18 8 5 4 3 3 4 5 6 8 9 9 10 9 9 9 8 8 8 7 6 7 7 7 7 8 8 8 9 9 9 9 10 11 12 16 18 18 18 15 13 15 17 19 21 24 29 32 33 35 36 37 39 39 40 41 42 46
37 42 51 60 64 65 66 65 62 58 56 57 59 62 67 70 72 75 77 78 79 82 84 82 72 55 38 22 12 8 6 4 4 4 5 7 8 9 10 10 9 9 9 9 9 8 7 7 7 7 8 8 8 9 9 9 9 9 9 9 10 11 13 16 18 19 18 16 15 16 18 19 22 25 29 30 31 33 35 36 37 38 38 40 49
37 39 45 53 60 65 68 69 69 66 63 62 63 65 69 72 75 77 79 80 81 84 87 85 75 60 44 29 19 13 8 5 4 4 6 7 8 9 10 10 9 9 9 9 9 8 7 7 7 8 8 9 9 10 10 10 9 9 9 9 9 10 11 15 17 19 20 19 17 17 17 18 20 22 25 28 29 30 31 32 34 37 38 41 51
41 41 43 47 54 62 67 72 74 73 71 68 67 69 71 75 77 78 80 81 82 86 89 87 79 66 51 36 26 18 10 6 4 5 6 7 8 9 9 9 9 9 9 9 9 8 8 8 8 8 9 10 10 11 11 11 11 10 10 9 9 10 10 12 15 18 20 20 20 19 17 18 19 20 23 26 27 29 31 30 31 33 37 45 56
42 43 44 44 47 55 65 74 79 79 77 74 72 73 75 77 79 80 82 83 84 88 90 90 83 70 55 43 33 22 12 6 5 5 7 8 8 9 9 10 9 9 10 9 9 9 8 8 9 9 10 10 11 12 12 11 11 11 11 10 9 10 10 10 12 16 18 20 21 20 19 19 20 20 21 23 25 28 31 33 32 33 39 50 61
38 41 44 44 45 50 60 72 79 81 81 78 76 76 78 79 80 81 83 84 85 89 92 93 86 72 59 48 37 25 13 7 6 6 8 8 8 9 9 9 9 9 9 9 9 9 8 9 10 9 10 11 11 12 12 12 12 12 12 12 11 10 10 10 11 14 17 19 21 21 20 20 20 20 20 22 24 27 32 35 35 38 45 54 62
35 37 41 45 47 49 55 66 74 79 82 82 81 81 80 81 81 83 84 85 87 90 93 95 88 75 63 52 40 27 15 8 7 8 9 8 8 9 9 9 9 9 9 9 9 9 8 9 10 10 10 11 12 13 13 12 13 13 13 13 12 11 10 10 11 13 15 18 21 24 22 20 22 22 20 22 24 28 34 36 37 44 55 58 57
33 34 38 44 49 51 53 59 67 76 83 86 86 84 83 83 84 84 86 87 89 91 96 97 89 78 67 55 42 29 16 10 9 9 10 9 8 9 9 9 9 8 9 9 9 10 9 9 10 11 11 12 12 13 13 13 14 15 15 14 13 13 12 10 11 12 14 17 21 27 26 23 24 24 22 22 25 30 36 39 43 53 64 66 59
33 32 35 40 46 50 52 55 60 70 81 88 90 88 86 86 85 86 88 89 90 93 98 98 90 80 70 56 43 30 18 12 11 11 11 10 9 9 8 9 9 8 9 9 9 10 10 10 11 11 11 12 13 14 14 14 15 15 16 16 15 14 13 12 11 12 14 17 20 27 30 27 26 25 23 23 27 33 37 41 53 65 70 72 66
37 35 34 36 41 47 51 54 57 65 77 89 93 91 89 88 87 87 90 91 92 96 100 99 92 82 71 58 44 31 20 15 13 12 12 10 9 9 8 8 8 8 8 9 10 11 10 10 11 11 12 12 13 14 14 14 16 17 17 17 16 16 14 13 12 12 14 17 20 27 32 31 29 26 24 25 29 35 39 46 62 72 72 73 72
44 42 40 38 38 43 50 55 58 66 78 91 96 93 91 91 89 90 92 93 94 97 100 100 94 84 72 59 45 32 22 18 16 14 12 11 9 9 8 8 8 7 8 9 10 11 11 10 11 11 13 13 12 13 13 14 16 17 19 19 18 17 15 13 13 13 15 19 23 29 34 34 31 27 25 28 33 38 43 53 67 74 71 75 79
56 51 47 43 39 40 48 56 62 70 82 92 97 95 94 93 90 92 94 93 95 99 100 99 94 84 72 59 46 34 25 21 18 15 13 11 10 9 8 8 7 7 8 8 9 11 11 11 11 11 12 13 13 13 13 14 16 17 19 20 19 18 16 14 13 13 15 21 26 31 35 35 32 28 25 29 36 42 51 65 79 82 77 78 83
67 63 57 52 46 42 46 56 67 77 86 93 97 97 96 94 93 95 95 94 97 99 100 100 94 84 73 60 46 36 29 24 20 16 13 11 10 9 8 7 7 7 7 8 9 10 11 12 12 12 13 13 13 14 14 15 16 18 20 21 19 18 17 14 13 13 15 22 29 34 36 35 31 27 27 32 42 51 64 80 91 91 84 81 83
65 66 65 63 59 52 49 55 69 81 88 93 98 98 97 96 96 97 95 94 98 100 100 100 94 84 74 60 48 39 32 26 21 16 13 11 10 9 8 7 7 6 7 8 8 9 10 11 12 12 13 14 14 15 16 16 17 19 20 20 19 18 16 14 13 13 15 21 30 35 37 36 31 27 28 39 53 66 79 89 95 94 89 86 82
63 62 66 70 70 65 60 59 68 78 86 93 98 99 99 98 98 99 97 97 99 100 100 100 93 84 73 60 50 42 34 28 22 16 13 11 10 9 8 7 7 6 7 7 8 9 10 10 12 13 14 15 15 16 16 17 19 20 19 19 19 17 16 14 13 12 13 19 28 36 38 35 30 27 32 45 64 81 93 98 98 95 91 88 85
67 63 65 71 74 73 69 65 66 73 84 95 100 99 100 99 99 100 99 99 100 100 100 99 92 83 73 61 52 44 36 29 22 16 13 11 10 9 8 7 7 6 7 7 8 9 9 10 12 13 14 16 16 17 18 19 20 20 20 20 18 17 16 13 12 12 12 16 26 35 37 34 29 28 35 51 71 90 101 102 99 95 89 87 89
69 66 63 64 70 75 73 68 64 69 84 97 100 100 100 100 100 100 99 100 100 100 100 98 91 82 72 61 53 45 37 29 22 16 13 11 10 9 8 7 7 6 7 7 8 9 9 10 11 12 14 15 16 17 19 20 20 20 20 20 18 17 15 13 12 12 12 17 27 34 36 32 28 28 37 55 77 94 101 101 98 95 91 88 90
66 68 67 65 68 73 74 70 64 70 86 98 100 100 100 99 100 100 100 100 100 100 100 97 91 83 72 61 53 45 36 29 22 16 13 11 10 9 8 7 7 6 6 7 8 9 9 10 11 12 13 14 15 17 19 21 21 20 20 20 19 18 16 13 13 12 13 19 29 35 35 30 27 31 43 64 86 97 100 100 97 96 96 96 96
63 65 70 72 73 73 74 71 67 72 85 95 98 100 100 99 100 100 100 100 100 100 100 97 91 83 72 60 52 44 36 29 21 15 13 12 10 9 9 8 7 7 7 7 9 9 9 10 11 12 12 14 15 18 20 22 21 20 21 21 20 19 17 14 13 12 15 23 31 35 34 29 27 35 53 77 95 100 99 100 100 100 101 102 103
66 65 66 70 74 76 76 73 70 73 81 90 97 100 100 100 100 99 99 100 100 100 100 97 91 82 71 59 50 42 35 27 20 15 13 11 11 10 10 9 8 7 7 8 9 9 9 10 11 11 12 14 16 20 22 22 20 20 22 21 21 20 17 14 13 13 17 26 34 34 31 28 30 44 67 89 98 97 97 100 101 104 104 102 104
70 68 66 67 71 76 79 77 74 75 81 90 97 100 100 100 99 99 100 100 100 100 100 97 91 81 69 58 48 40 33 24 18 15 13 11 11 11 10 10 9 9 8 8 10 10 9 10 10 11 13 15 18 21 22 21 21 21 22 22 22 20 17 15 14 15 21 30 34 33 30 30 38 58 82 96 97 94 96 99 101 104 104 101 102
72 66 66 69 72 77 82 82 78 77 81 88 94 98 99 99 99 99 100 100 99 100 100 98 90 79 67 55 46 39 30 22 17 15 13 12 11 11 11 11 10 10 9 9 10 10 10 10 11 11 13 16 19 21 22 22 21 21 22 24 23 20 17 14 13 17 25 33 34 31 29 34 51 77 94 98 97 97 97 97 100 102 101 99 99
76 65 62 67 73 78 83 85 82 80 80 85 92 97 99 100 99 99 100 100 99 100 100 96 87 75 64 53 44 36 28 20 16 14 13 12 12 12 12 11 10 10 10 9 10 10 10 10 11 11 14 17 20 21 21 20 21 22 25 25 22 19 16 13 15 22 30 34 33 30 32 46 71 93 100 99 99 100 99 97 97 99 100 97 92
84 72 62 62 69 76 81 85 86 83 82 84 89 93 97 99 99 99 100 100 99 100 99 92 81 71 60 50 42 34 25 18 15 14 13 13 13 13 12 11 11 10 10 10 11 10 10 11 11 12 15 18 21 22 21 20 21 23 24 24 21 18 15 13 19 27 33 35 32 31 43 67 89 98 99 99 101 102 102 102 98 97 99 98 89
87 82 68 62 65 72 78 84 86 86 87 88 89 91 95 99 100 100 100 99 100 101 96 86 75 66 56 46 37 28 21 16 13 13 13 14 14 13 12 11 11 11 11 11 10 10 10 12 12 13 16 19 21 21 20 19 21 22 23 23 20 16 14 17 24 33 35 33 31 40 62 86 98 100 99 100 102 104 104 102 100 99 99 98 93
85 89 79 68 66 69 74 80 84 87 90 91 92 95 98 100 100 100 100 99 101 99 90 77 68 60 51 42 33 25 19 15 12 13 14 14 14 13 12 12 12 11 11 11 10 10 11 11 12 14 17 19 20 20 19 19 20 22 23 23 18 15 16 21 29 35 34 32 39 60 84 98 100 100 101 100 101 103 103 102 101 100 101 100 95
80 90 87 77 71 70 72 76 80 85 89 93 96 99 100 100 99 100 100 99 101 98 85 71 63 56 48 41 33 24 17 13 12 13 14 13 13 12 12 12 12 12 12 11 10 11 11 11 12 14 17 19 20 19 18 18 19 22 22 20 17 15 18 26 34 36 32 36 57 83 98 101 99 100 102 100 99 100 102 103 103 103 104 101 91
74 87 91 85 79 76 75 75 78 82 88 94 98 100 100 100 99 100 100 100 100 98 86 71 61 54 47 40 31 21 15 12 12 12 13 12 12 11 11 12 12 12 12 11 10 10 11 11 12 15 18 20 20 19 18 18 20 21 21 18 16 16 22 31 36 33 34 52 80 98 101 99 100 101 101 99 98 99 101 103 105 105 104 99 88
70 81 89 89 86 83 80 78 77 79 84 92 98 100 100 100 99 100 100 99 101 98 84 68 59 52 44 35 26 17 14 13 12 11 11 10 10 10 10 11 11 11 11 10 9 10 11 10 12 16 19 20 20 19 18 19 20 21 19 16 15 19 29 35 33 33 49 76 96 101 100 99 100 100 100 100 100 100 101 103 104 102 97 91 83
68 74 83 88 88 87 85 82 80 79 82 89 98 101 100 99 100 100 99 99 101 96 80 64 56 48 38 29 22 17 15 13 10 9 9 8 9 9 9 10 10 10 11 10 9 10 11 11 15 18 20 20 20 19 19 20 21 20 18 15 17 24 33 34 32 46 74 96 102 100 99 100 100 99 100 101 101 102 102 101 98 94 88 81 76
71 72 80 87 89 90 89 86 83 82 85 92 98 100 100 100 100 100 99 100 100 92 75 62 54 45 34 26 21 18 15 11 8 7 7 7 8 8 8 9 10 10 10 10 10 10 11 13 17 20 21 21 20 18 19 19 20 19 16 15 21 30 34 33 42 69 94 102 100 99 100 100 101 101 98 95 94 92 91 88 84 81 77 72 71
78 78 81 85 90 92 93 91 88 87 90 97 100 100 100 100 100 100 100 101 98 86 71 62 54 44 34 27 21 16 13 9 7 6 5 6 7 8 8 9 10 10 10 10 10 11 12 15 19 22 22 21 19 18 18 19 19 19 15 17 27 33 32 39 63 91 103 100 98 101 102 100 96 89 81 76 73 70 68 67 67 68 67 67 67
82 84 83 84 88 93 96 96 95 94 96 99 100 100 100 100 100 100 100 100 96 83 71 64 57 45 36 28 19 14 11 9 7 6 5 5 6 7 8 9 9 10 10 10 10 12 13 17 22 23 21 19 18 17 18 20 19 16 16 24 31 32 35 58 88 102 101 98 101 101 94 84 73 63 57 55 55 54 54 55 57 59 61 62 63
76 85 88 88 90 95 98 99 98 98 99 100 99 100 100 100 100 100 100 100 93 82 73 67 57 46 35 24 16 12 10 8 7 6 5 5 6 7 8 9 9 9 10 10 11 12 15 20 23 22 19 19 17 17 19 20 17 15 21 29 31 34 53 83 101 101 99 102 99 85 69 57 50 47 46 46 46 47 49 49 50 53 56 58 59
69 81 93 96 96 97 99 99 99 99 99 99 100 100 100 100 100 99 99 98 93 84 76 67 55 44 32 21 14 12 10 8 8 6 5 4 6 7 8 9 9 9 10 10 11 13 17 22 23 21 19 18 16 18 20 18 15 19 27 30 33 50 78 98 102 101 101 95 78 59 47 43 43 44 45 45 44 44 44 44 45 49 52 54 58
68 76 88 96 99 100 100 99 99 98 98 99 100 100 100 100 100 98 98 98 94 85 74 62 50 40 29 20 15 13 10 9 8 6 4 4 5 6 8 9 9 9 10 10 12 15 20 23 22 20 18 17 17 19 19 15 17 24 28 31 44 70 94 103 102 98 88 69 51 42 39 41 44 45 45 45 46 46 44 44 45 48 49 51 56
71 73 80 88 95 99 100 99 99 99 99 99 100 99 100 101 100 99 100 100 94 82 68 55 44 35 26 20 16 13 10 9 7 4 4 4 4 6 8 8 8 9 10 11 14 18 22 22 21 18 16 16 18 19 16 15 21 26 29 40 62 86 101 103 95 80 60 44 38 38 39 41 43 43 42 42 43 44 46 46 46 47 48 50 56
76 79 82 87 94 100 100 99 100 100 99 99 100 99 100 100 100 100 101 99 92 78 62 49 40 31 25 20 16 12 10 8 5 4 4 4 5 7 8 8 8 10 10 12 16 20 22 22 19 17 16 17 18 17 15 19 24 28 36 55 79 96 101 94 74 53 40 35 35 36 38 39 39 37 36 35 36 40 44 45 43 44 47 52 60
81 84 85 88 95 99 100 99 100 100 99 100 100 100 100 100 100 100 100 99 91 76 61 49 39 32 25 19 14 11 8 6 4 4 4 4 5 7 7 8 9 10 10 14 19 21 22 20 17 15 16 18 17 15 17 22 25 32 48 72 92 98 90 70 49 36 32 32 32 34 35 34 31 29 28 28 30 35 38 38 39 44 50 57 66
84 86 87 89 94 99 100 99 99 100 99 100 100 100 100 100 100 100 100 99 91 77 63 50 40 31 23 15 10 8 6 4 4 4 3 4 6 7 7 8 9 10 12 17 20 21 21 19 16 16 17 17 16 16 19 23 28 41 63 85 95 88 66 45 34 31 29 28 30 32 29 26 24 25 25 26 29 31 32 35 42 48 55 64 73
82 84 87 90 95 99 100 99 99 100 100 100 100 100 100 100 100 100 100 99 90 77 64 51 38 26 16 9 6 5 3 3 4 4 3 5 6 6 7 9 9 11 15 19 20 21 20 17 15 17 17 15 16 18 20 25 36 55 78 91 86 66 44 31 29 27 25 26 28 27 23 22 24 24 26 27 29 30 33 39 46 54 64 73 78
81 85 89 93 98 100 100 99 100 100 100 100 100 100 100 100 100 100 100 98 90 77 63 49 34 20 10 5 4 3 3 4 4 3 4 5 6 7 8 9 10 13 18 20 21 21 18 15 15 17 16 15 17 19 23 32 49 70 87 87 68 44 31 27 26 23 23 26 25 21 20 22 23 24 27 29 30 32 37 44 52 62 73 78 78
88 88 91 96 100 100 99 100 100 100 100 100 100 99 100 100 100 100 101 98 90 77 63 46 27 12 5 4 3 3 3 3 3 3 4 5 6 8 8 9 12 16 19 21 21 19 16 15 16 16 15 16 18 20 28 43 63 82 87 73 48 31 26 25 22 21 24 24 20 18 19 20 21 24 28 29 31 35 41 50 61 71 75 76 76
92 89 92 98 100 100 100 100 100 99 100 100 99 99 100 100 100 100 101 98 91 78 60 38 18 6 3 4 3 3 3 3 3 4 4 5 7 8 9 11 15 18 20 21 20 17 14 15 16 14 14 16 19 24 37 55 75 86 77 53 32 26 25 22 19 22 23 20 17 17 18 19 21 24 26 27 31 40 50 60 69 73 73 74 77
93 93 97 100 100 100 100 100 100 100 100 99 99 100 100 100 100 100 100 99 92 77 53 27 9 3 3 4 3 3 3 3 3 4 5 6 7 8 10 14 17 19 20 21 18 14 14 15 14 14 15 17 21 30 48 67 81 80 60 36 25 25 22 18 19 22 21 17 17 18 18 19 22 24 26 30 39 49 58 65 70 70 71 75 78
97 99 101 100 99 100 100 99 100 100 99 99 100 100 99 100 100 100 100 100 92 69 37 13 4 3 4 3 3 3 3 3 4 5 5 7 8 10 13 16 19 19 20 19 15 13 15 15 13 14 16 18 25 40 59 75 80 66 42 26 23 23 18 17 20 21 18 18 19 20 20 23 26 29 33 41 48 54 60 65 68 69 72 76 78
100 101 100 99 100 100 100 99 100 100 99 100 101 100 100 101 100 99 101 100 83 50 19 4 3 4 4 3 4 3 3 3 4 5 6 8 9 12 15 18 19 20 19 16 13 14 15 13 13 15 17 21 33 51 68 77 71 50 29 22 23 20 16 17 20 19 18 20 22 23 25 29 33 38 43 48 51 55 60 64 67 69 73 74 71
100 100 99 100 100 100 99 100 100 99 99 101 100 100 100 101 99 99 101 92 63 27 6 3 4 4 3 4 4 3 3 4 4 5 7 9 11 14 17 18 19 19 17 13 12 14 14 13 14 16 18 27 43 60 73 74 58 35 22 22 22 17 15 19 20 18 19 21 23 26 31 34 38 42 46 48 51 55 59 63 67 70 71 67 59
Wind_Speed
47 48 48 49 48 48 48 47 46 44 43 42 40 37 35 32 29 28 28 28 26 24 22 20 20 20 20 21 20 20 19 18 17 16 15 15 16 15 14 14 15 16 18 19 20 20 21 22 24 25 26 28 29 31 32 34 35 36 37 38 39 41 42 42 43 40 35 35 37 36 38 40 39 40 41 39 38 38 38 39 41 42 42 42 42
47 49 49 49 49 49 49 49 48 47 46 45 42 38 35 32 30 29 29 28 27 25 23 21 20 20 21 22 21 20 20 19 18 16 16 16 16 15 14 14 15 17 18 19 20 20 21 22 24 25 27 28 29 31 33 34 36 37 38 39 40 41 43 43 44 44 40 37 37 38 38 40 40 41 42 42 41 40 40 40 42 43 43 44 45
46 49 51 51 50 50 50 50 50 49 48 46 43 39 36 33 31 30 29 29 28 26 24 21 20 20 21 22 22 21 20 20 19 17 17 17 16 16 15 15 16 17 19 20 20 21 21 22 24 25 27 28 30 31 33 34 36 37 38 39 40 40 42 43 44 45 44 41 39 39 40 40 42 42 43 44 43 43 43 43 44 45 45 45 46
44 48 51 52 52 51 51 51 51 50 49 47 44 40 37 34 32 31 30 30 29 27 25 23 21 21 22 23 23 22 21 21 19 18 17 17 17 16 15 15 16 18 19 20 20 21 22 23 24 25 27 29 30 31 33 34 35 37 38 39 40 41 42 43 44 45 46 44 42 41 41 41 42 43 45 45 45 46 47 46 46 48 48 47 47
44 47 50 52 53 53 53 52 51 51 50 47 44 40 37 34 33 32 31 31 30 28 26 23 21 21 22 23 24 23 23 22 21 19 19 18 18 17 16 16 17 18 19 20 21 21 22 23 24 25 27 28 30 31 33 34 36 38 39 40 41 41 42 43 45 45 46 46 45 43 42 43 43 44 46 47 48 48 49 49 49 50 51 50 49
42 45 47 50 52 53 54 53 52 51 50 47 44 41 38 35 34 33 32 32 31 29 27 24 22 22 22 24 25 24 24 23 22 21 20 19 18 17 17 17 17 18 19 20 21 21 22 23 24 25 27 28 30 31 33 34 36 38 40 41 41 42 42 43 44 45 45 46 46 45 44 44 45 45 47 49 51 51 52 53 52 52 53 53 52
38 42 45 48 51 53 54 53 52 51 49 47 44 42 39 36 35 34 33 33 32 30 28 25 23 23 23 24 25 25 25 24 23 22 21 20 19 18 18 17 18 19 20 20 21 22 23 24 25 25 27 28 30 31 33 34 36 38 40 41 42 42 43 44 45 45 46 46 47 47 46 45 46 47 48 50 52 52 54 55 55 55 56 56 55
33 37 42 46 48 51 52 53 53 51 49 47 45 43 40 37 36 35 35 34 33 31 29 26 25 24 24 24 25 26 25 25 24 23 22 21 20 19 18 18 18 19 20 20 21 22 23 24 25 26 27 28 30 31 33 35 36 38 40 42 43 43 44 45 46 46 47 47 47 48 48 47 47 48 49 51 53 53 54 57 58 58 59 58 55
31 33 37 41 45 48 50 52 53 52 50 48 46 44 41 38 37 36 36 35 34 32 30 28 26 24 24 25 25 26 26 26 25 24 23 22 21 20 19 18 19 19 20 21 22 22 23 24 25 26 27 28 30 31 33 35 36 38 40 42 43 45 45 46 47 47 48 48 48 49 50 49 49 50 51 52 54 54 55 56 58 59 60 59 55
33 33 34 36 40 44 48 50 51 52 50 49 47 44 41 39 38 37 37 36 35 33 31 29 27 25 24 25 26 27 27 27 27 25 24 23 22 20 20 19 19 20 20 21 22 23 23 24 25 26 27 28 30 32 33 35 37 38 40 42 44 45 46 47 48 48 49 50 49 50 51 51 50 51 52 53 54 55 55 57 59 60 60 60 56
34 34 34 33 36 40 44 47 49 50 50 49 47 45 42 40 38 37 38 37 35 33 32 30 28 25 24 25 26 28 28 28 28 26 25 24 22 21 20 20 20 20 21 22 23 23 24 25 26 28 29 29 31 32 34 36 38 39 41 43 44 46 47 48 48 49 50 51 50 50 51 53 52 52 53 54 54 55 56 57 59 60 60 60 58
37 36 35 33 34 37 40 43 46 48 49 48 47 44 42 40 39 38 38 37 35 34 33 31 28 25 24 25 27 29 29 29 28 27 26 25 23 22 21 21 20 21 22 22 23 23 24 25 26 28 29 30 31 33 35 37 38 40 41 43 44 46 47 48 49 49 50 51 51 50 51 53 54 53 53 55 55 55 56 57 58 59 59 59 59
38 37 36 34 34 35 37 40 43 45 47 48 46 44 42 41 39 39 39 37 36 34 33 31 29 26 24 25 27 30 31 30 29 28 27 26 24 23 22 21 21 21 22 23 23 23 24 24 26 28 30 31 32 34 36 38 39 41 42 43 45 46 47 48 49 49 50 51 52 51 51 53 55 54 54 55 55 56 57 57 58 60 60 59 59
38 37 35 34 33 33 35 38 41 44 46 47 46 44 42 41 40 39 39 37 36 35 33 32 29 26 24 26 28 31 32 31 29 28 28 26 25 24 23 22 22 22 23 24 23 24 25 25 26 28 31 32 34 35 38 39 41 42 43 44 45 46 47 48 49 49 50 50 51 52 51 53 55 55 54 54 55 56 58 58 60 61 61 59 58
39 37 36 34 33 33 35 39 42 45 46 46 45 44 42 41 40 40 38 37 36 35 34 32 29 26 25 27 29 32 33 32 30 29 28 27 26 24 23 23 23 23 24 24 24 25 26 27 28 29 31 33 35 37 40 41 43 44 44 45 46 46 47 49 49 49 50 50 50 51 51 52 54 55 54 55 56 58 59 59 59 61 61 59 56
39 39 38 36 35 35 36 38 42 44 44 45 45 44 42 41 40 39 38 37 36 35 34 32 29 27 26 28 30 33 34 32 30 29 29 28 26 25 24 23 23 24 24 25 25 26 28 29 30 31 32 34 37 39 42 43 44 45 46 46 46 47 48 49 50 50 50 49 49 50 51 53 55 56 56 56 57 58 58 58 57 59 59 58 56
32 35 38 39 39 37 37 37 39 41 43 44 43 42 42 41 40 39 37 37 36 35 34 32 29 27 27 29 31 34 34 33 31 30 29 28 27 26 25 24 23 24 25 26 26 27 29 31 32 33 34 36 38 40 43 45 45 47 47 47 47 48 49 50 51 50 50 49 49 51 52 54 55 55 55 55 55 56 57 57 56 57 58 58 57
26 29 35 38 39 37 36 35 37 39 41 41 41 42 42 41 40 39 38 37 35 34 33 32 29 28 28 29 32 34 35 34 32 30 29 28 27 26 25 24 24 24 25 26 27 28 30 32 34 35 35 37 39 41 44 45 46 47 49 49 49 49 50 52 52 52 51 51 51 51 53 54 55 55 54 53 54 55 56 56 56 57 57 57 57
26 29 32 35 37 36 36 35 36 38 39 40 41 42 42 42 40 39 39 37 35 34 33 32 30 28 28 30 33 35 35 35 33 31 30 29 28 27 26 25 24 25 25 26 27 29 31 33 35 36 37 38 40 42 44 45 47 48 49 50 50 51 52 53 54 54 53 53 52 52 53 55 55 54 53 53 54 54 55 56 56 57 57 57 57
30 30 30 33 36 37 36 35 36 37 38 39 41 43 43 43 42 41 40 37 35 34 33 32 30 29 29 32 34 35 35 35 33 32 31 30 29 27 27 26 25 25 26 26 27 29 31 33 35 37 38 39 40 42 43 45 47 49 50 51 52 52 53 54 55 56 55 54 53 54 55 56 55 55 55 55 55 55 55 56 56 57 57 57 56
32 31 30 31 33 36 36 35 35 36 38 40 43 45 45 44 43 42 40 37 35 34 33 31 29 29 31 33 34 35 36 36 35 33 32 31 30 28 27 27 26 25 26 26 28 29 31 33 35 37 38 39 41 42 44 46 48 49 50 51 52 53 54 55 56 56 55 55 54 54 55 57 56 56 56 56 56 56 56 56 56 56 56 56 55
31 31 30 29 30 33 35 35 35 37 40 43 45 46 46 44 44 43 41 38 35 35 33 31 29 30 31 32 33 34 36 37 36 34 33 32 31 29 28 28 27 26 26 27 28 30 31 33 35 37 38 40 41 42 44 46 48 49 50 51 52 53 55 56 56 56 55 55 55 55 56 58 57 56 57 57 57 57 56 56 56 55 55 54 53
30 30 30 29 29 30 33 35 37 39 42 45 46 47 46 45 45 44 42 38 36 35 33 30 29 29 30 32 33 35 37 37 36 35 34 33 32 31 30 29 28 27 27 27 29 31 32 33 35 37 38 40 41 42 44 46 48 49 50 51 52 53 55 56 56 56 55 54 55 56 57 58 58 57 58 57 57 57 56 56 55 54 53 52 50
31 31 31 29 29 30 32 35 37 39 42 45 47 47 47 46 45 44 42 39 36 34 31 29 28 28 30 31 33 35 37 37 37 36 35 34 33 32 31 30 29 28 28 28 29 31 32 33 35 37 38 40 41 42 44 45 47 49 50 51 52 53 54 55 55 55 55 55 56 57 58 58 58 58 59 58 58 57 57 56 55 53 53 52 50
32 31 31 30 29 29 31 34 36 38 41 44 46 47 47 47 45 43 41 39 36 32 29 27 26 28 29 31 32 35 37 38 37 36 35 34 33 33 32 31 30 29 29 29 30 31 33 34 35 37 38 40 41 42 43 45 47 48 49 50 52 53 54 55 55 55 55 55 57 58 59 58 59 59 59 59 58 58 57 57 55 54 53 52 50
33 31 30 30 30 30 31 32 33 36 39 43 46 47 47 46 44 42 40 39 36 30 27 26 26 27 29 30 31 34 36 37 38 37 36 35 34 34 33 32 31 30 30 30 31 32 33 34 36 37 38 40 41 42 44 45 47 48 49 50 51 53 54 55 55 55 56 57 58 59 59 59 59 59 59 59 58 58 58 58 57 55 53 53 50
33 32 30 29 30 31 31 31 31 33 36 40 44 47 47 46 44 41 39 38 34 28 24 24 25 26 27 28 31 33 35 37 38 38 37 36 35 35 34 32 31 31 30 30 31 32 33 34 36 37 39 40 41 42 44 46 47 48 48 50 52 53 55 55 55 55 56 58 59 59 58 59 60 60 60 59 58 57 57 58 57 55 53 52 51
33 32 30 28 28 31 32 32 32 32 34 37 42 45 46 44 41 38 37 36 32 25 22 22 24 25 26 28 31 33 34 36 38 39 38 37 36 36 34 33 32 31 31 31 32 32 33 34 36 37 39 40 41 42 44 46 47 48 49 50 53 54 55 55 55 55 57 58 59 59 59 60 60 60 60 59 58 57 57 57 56 55 53 52 50
33 31 29 28 27 28 31 34 34 33 34 36 40 43 43 40 37 35 35 34 30 25 23 24 25 26 28 30 32 33 34 35 38 39 39 38 37 36 34 33 32 31 31 32 32 32 34 35 36 37 39 40 41 42 44 46 48 49 50 51 53 54 54 54 54 56 57 59 59 59 60 61 61 60 60 59 58 57 56 56 55 54 52 51 50
32 30 28 27 25 26 29 32 34 35 36 37 39 42 42 39 37 36 36 34 31 27 26 25 26 28 30 31 32 33 33 35 37 39 39 39 38 37 34 33 32 31 31 32 32 32 34 35 35 37 39 40 41 43 45 47 49 49 50 51 53 53 54 54 55 57 58 59 60 60 61 61 61 60 60 59 58 57 55 54 54 52 51 50 49
31 30 27 26 25 25 26 29 32 35 37 38 40 41 40 37 36 36 35 33 31 28 26 25 26 27 29 31 32 32 32 34 36 38 39 39 38 36 34 32 32 31 31 32 32 32 34 35 35 37 39 40 42 43 45 48 49 50 51 52 53 53 54 54 56 58 59 60 60 61 61 61 60 60 60 59 58 57 55 53 52 51 50 49 48
29 29 27 25 25 25 24 26 29 33 36 38 40 39 38 36 35 34 32 31 30 28 25 25 25 26 28 30 31 32 32 33 34 36 37 38 38 36 34 32 32 31 31 31 31 32 34 35 36 37 39 40 42 44 46 48 50 51 52 53 53 53 54 56 58 59 60 60 61 61 61 60 61 61 60 59 58 56 54 52 51 49 48 47 46
28 28 27 25 25 25 24 24 26 29 32 36 38 38 35 33 32 30 29 29 29 27 25 24 24 25 27 29 31 31 31 32 33 34 36 37 37 36 34 32 31 30 30 31 30 31 33 34 36 37 39 40 42 44 47 49 50 51 53 54 54 54 55 57 59 59 60 61 61 61 61 61 61 61 59 57 55 54 52 51 49 48 47 46 44
28 27 26 25 24 24 24 23 24 25 28 32 36 35 33 30 29 28 27 28 27 26 24 23 23 24 26 28 30 31 31 31 31 33 34 35 35 34 33 31 30 30 30 30 30 31 32 34 36 37 39 40 43 45 47 49 50 52 53 54 54 55 56 58 59 59 60 61 60 60 61 61 60 59 57 55 53 52 51 50 48 47 46 44 42
28 26 25 24 23 23 23 23 23 23 26 30 33 33 31 29 29 28 27 27 27 26 25 24 24 25 27 29 30 30 31 31 31 32 32 33 33 32 31 29 29 29 29 29 30 31 32 34 36 37 39 41 43 46 48 49 50 52 53 54 54 56 58 58 59 60 61 61 60 60 61 60 58 57 55 53 52 51 49 48 47 45 44 42 40
28 26 24 22 22 22 22 22 22 22 25 29 31 31 30 29 28 27 27 28 28 28 26 25 25 26 27 28 29 30 30 30 30 30 30 30 31 30 29 28 27 28 28 29 30 31 32 34 35 37 39 41 44 46 48 50 51 52 53 54 55 57 58 59 60 61 60 60 60 60 59 57 55 54 53 52 50 49 48 47 45 43 41 39 38
27 25 23 22 21 22 23 22 21 22 26 30 31 31 30 30 29 28 29 30 30 28 26 25 24 25 26 26 27 28 28 29 29 29 28 28 28 28 28 27 26 26 27 28 29 30 32 33 35 37 39 42 44 47 48 49 51 52 53 54 56 57 58 59 60 60 60 60 60 59 57 54 53 52 51 51 50 49 47 46 43 41 39 37 35
26 24 22 22 21 22 24 24 22 23 28 31 32 32 31 30 30 30 30 31 30 27 24 23 22 23 24 25 26 27 28 28 28 27 26 27 27 27 26 26 25 25 26 27 29 30 31 33 35 37 39 42 45 46 48 50 51 52 53 54 56 57 58 59 60 59 59 59 58 56 53 51 50 50 50 50 49 48 46 44 42 39 37 35 33
25 23 23 23 22 22 24 25 25 25 28 31 32 33 32 32 31 31 31 29 27 25 22 20 20 21 22 24 25 27 27 27 26 25 25 26 26 26 25 25 24 24 25 26 28 29 31 32 34 37 39 42 45 46 48 50 51 51 53 55 56 57 58 59 59 59 59 57 54 52 50 49 49 49 49 49 48 47 45 43 40 38 35 33 31
24 23 23 24 23 22 23 24 25 26 28 30 31 31 31 31 31 30 29 27 25 22 19 18 18 20 21 23 25 26 26 26 25 25 25 25 25 24 24 23 23 23 24 25 27 28 30 31 34 37 40 42 44 46 48 49 50 51 53 55 56 57 58 58 58 58 56 54 51 49 49 49 49 49 49 48 47 46 44 41 39 36 34 33 31
23 23 24 24 23 22 23 23 24 25 27 29 30 30 30 30 29 28 28 26 24 22 19 18 18 19 20 22 24 25 25 25 25 24 24 23 23 23 23 22 22 23 24 25 26 28 29 31 34 37 40 42 44 46 47 49 50 52 53 54 56 57 57 57 57 56 53 50 48 48 48 49 50 49 48 47 46 44 42 40 37 35 33 32 29
23 23 24 24 23 23 22 22 22 24 26 28 30 29 29 29 29 28 28 27 24 22 20 18 18 18 19 21 23 25 25 24 23 22 22 21 21 22 22 21 21 22 23 24 26 27 29 31 34 37 40 42 44 45 47 48 50 52 53 54 55 56 56 56 55 52 49 48 48 48 49 50 49 48 47 45 43 42 40 38 36 34 32 30 27
23 23 23 23 23 23 22 21 22 23 25 26 28 29 29 30 29 28 28 27 24 21 20 19 17 17 18 20 22 23 23 22 21 20 20 20 21 21 20 20 20 21 22 24 25 27 28 31 34 37 39 41 43 45 46 48 50 51 53 54 54 55 55 54 51 49 47 47 48 49 50 49 48 46 44 42 41 39 38 36 34 32 29 27 26
23 23 22 22 22 23 22 21 22 23 24 25 28 29 30 30 29 28 27 25 22 21 20 18 17 17 18 19 20 21 21 20 19 18 19 20 20 20 19 19 20 20 22 23 24 26 28 31 34 36 38 41 42 44 46 47 49 51 52 53 53 53 53 51 48 46 46 48 49 49 49 48 46 44 42 40 38 37 36 34 31 29 27 26 26
22 21 21 21 22 23 22 21 21 24 25 26 28 30 31 30 28 26 25 24 22 21 20 18 17 16 17 18 18 18 18 17 17 17 18 19 19 18 18 18 19 20 21 22 24 26 29 31 34 36 38 40 42 44 45 47 48 50 51 52 52 52 50 47 46 45 46 48 49 49 48 46 44 41 39 38 36 35 33 31 28 27 26 26 26
22 21 20 20 22 23 22 20 21 24 25 27 28 30 30 28 26 25 24 23 22 20 19 17 17 16 16 16 16 16 16 16 16 17 17 17 17 17 17 17 18 19 20 21 23 26 29 31 33 35 37 39 41 43 44 46 47 48 50 50 50 49 47 45 44 44 46 47 48 47 45 43 41 39 37 35 34 32 30 28 27 26 26 26 26
22 21 20 21 23 24 22 20 21 24 26 27 28 29 28 26 25 24 24 23 22 19 18 17 16 15 15 14 14 14 14 15 15 16 16 16 16 16 16 16 17 18 19 21 23 26 29 31 33 35 37 39 40 41 43 45 46 47 48 48 48 46 44 42 42 43 45 46 46 45 42 40 39 37 35 33 31 30 28 27 26 26 26 25 25
21 19 20 22 24 25 22 21 22 24 26 26 27 27 26 24 23 23 23 23 21 18 17 16 15 14 13 12 12 13 14 14 15 15 15 15 15 15 15 15 16 17 18 20 23 26 28 30 32 34 36 38 39 40 42 43 45 46 46 46 45 43 41 40 40 42 43 44 43 42 40 38 36 35 33 31 30 28 27 27 26 26 25 25 25
19 19 21 24 25 24 21 20 22 24 25 25 25 25 23 21 21 22 22 22 20 17 16 15 14 13 11 11 11 12 13 14 14 14 14 14 14 14 13 14 15 16 18 20 23 25 27 29 32 34 36 37 38 39 41 42 43 44 44 44 42 40 38 38 39 40 41 41 41 39 37 36 34 33 31 30 28 27 27 26 26 25 25 25 25
18 20 22 24 25 23 20 21 22 24 25 24 23 22 21 20 20 21 21 20 18 16 15 14 13 12 11 10 11 12 13 13 14 14 14 14 13 12 12 13 14 15 17 20 23 25 27 29 31 33 34 35 37 38 40 41 42 43 42 41 40 37 36 37 38 38 38 38 38 36 35 34 32 31 30 28 27 27 26 26 25 24 24 24 24
19 21 23 25 24 21 20 21 22 23 23 22 21 21 20 20 20 20 20 19 17 16 15 13 12 11 11 10 11 12 13 13 14 14 14 13 12 11 11 12 14 15 17 20 22 24 26 29 31 32 33 34 36 37 39 40 41 41 40 39 37 35 34 35 35 36 36 36 35 34 33 31 30 29 28 27 26 26 25 25 24 24 23 24 24
Wind_Direction
247 248 247 247 247 247 248 250 252 254 256 259 261 263 265 267 269 272 273 275 276 277 279 278 277 275 274 272 268 266 266 267 267 268 271 274 276 277 282 291 300 308 314 318 321 324 328 331 333 335 336 337 337 338 339 339 339 340 340 340 340 337 336 335 333 333 337 337 333 332 330 329 329 327 327 329 331 332 334 333 331 331 331 331 331
245 246 247 247 248 248 249 250 251 253 255 257 259 261 262 264 267 269 271 272 273 274 275 274 273 272 270 268 265 263 263 264 264 265 268 271 273 275 281 289 299 306 313 317 320 323 327 330 332 334 335 336 337 338 339 339 338 339 339 339 338 337 336 335 334 333 334 335 333 331 329 327 327 326 325 327 329 329 331 332 331 331 332 332 332
243 243 245 246 247 248 248 249 251 252 254 256 258 259 260 262 264 266 268 269 269 271 272 271 269 268 265 264 262 260 260 261 261 262 265 268 270 273 279 287 297 305 310 315 318 322 325 328 331 333 334 335 337 338 338 338 337 337 337 337 336 336 335 335 335 334 333 333 333 330 328 326 326 326 325 325 326 327 328 330 331 331 332 333 333
243 242 243 243 245 246 247 248 250 251 253 255 256 257 258 260 262 264 264 265 267 269 270 269 266 263 261 260 259 257 257 257 258 259 262 265 268 272 277 285 294 302 308 313 318 321 324 327 330 332 334 335 336 337 337 337 336 335 335 336 335 335 335 334 335 334 333 333 333 330 328 326 325 325 324 324 325 326 328 330 331 331 332 333 333
245 243 242 242 243 244 246 247 249 250 252 253 254 255 256 257 259 261 262 263 264 266 268 266 262 259 257 256 255 254 254 254 255 256 259 262 266 270 275 283 292 299 306 312 317 319 322 325 329 332 333 334 335 336 336 336 335 335 335 335 335 335 335 334 334 334 333 333 331 330 328 326 324 325 325 324 325 327 328 329 331 331 331 332 333
248 246 243 242 242 242 244 246 247 249 251 252 252 253 253 255 257 258 259 260 262 265 266 264 258 255 253 253 253 253 252 251 252 253 256 260 264 268 274 281 290 298 305 311 315 318 320 323 327 330 332 333 334 334 335 335 335 335 335 335 334 334 334 334 333 333 333 333 331 329 329 327 325 325 326 326 326 327 328 329 331 331 330 332 333
253 250 247 244 243 242 243 244 246 248 249 250 251 251 251 252 254 255 257 258 260 263 264 261 256 253 250 250 251 251 250 249 249 251 254 258 262 266 272 280 288 296 303 310 314 316 318 322 326 329 331 332 333 333 333 334 335 335 334 334 333 333 334 333 332 332 332 333 332 330 329 329 327 326 327 326 325 328 328 328 330 331 330 332 334
262 257 253 249 246 243 242 242 244 246 247 248 248 248 248 249 251 253 254 255 257 260 262 258 253 250 248 247 249 249 248 247 247 248 251 256 261 265 271 278 286 294 301 308 312 314 317 320 324 327 330 331 332 332 332 333 334 334 333 333 333 333 334 333 332 332 332 333 333 331 329 329 329 328 327 326 326 328 329 329 330 331 330 332 334
270 265 261 256 251 247 243 242 242 244 245 246 246 246 246 248 250 252 253 254 256 258 260 257 252 248 245 245 246 247 246 245 244 246 250 254 259 265 270 277 284 292 299 305 309 312 315 318 322 325 328 330 331 331 331 332 333 333 333 332 332 333 334 333 332 332 332 332 333 332 330 330 330 329 327 327 327 328 329 329 329 330 330 331 334
274 271 268 262 256 250 246 243 242 243 243 244 245 245 245 247 249 250 251 252 254 257 258 256 251 246 243 242 243 244 243 243 243 245 248 253 258 263 269 275 282 290 297 302 307 310 313 317 320 324 327 329 330 330 331 331 332 332 332 331 332 333 333 333 332 331 331 332 332 332 330 330 331 331 328 327 327 328 328 328 329 330 329 330 332
275 274 271 267 261 255 250 246 243 242 242 243 243 243 243 245 247 248 249 251 253 255 256 254 250 246 241 239 241 242 242 241 242 244 247 252 257 262 268 274 281 288 294 300 305 308 313 317 320 322 325 327 328 329 330 331 331 331 331 331 331 332 332 332 331 331 331 331 332 332 331 330 331 331 328 326 327 328 328 329 329 329 329 329 331
272 272 271 269 265 260 254 249 246 244 242 242 241 241 241 243 245 246 248 250 252 254 254 252 249 245 239 236 237 240 241 240 241 243 247 251 256 261 267 273 279 286 292 297 303 307 311 315 317 319 321 323 326 327 329 330 330 330 330 330 331 331 331 330 331 331 330 330 331 332 331 330 330 331 328 326 327 328 328 329 328 327 328 330 331
266 267 268 268 267 264 258 252 249 245 242 240 239 239 240 241 243 245 247 249 251 253 252 249 248 244 237 233 234 237 239 239 240 243 246 250 255 261 266 271 277 284 289 295 301 305 308 310 313 315 317 319 323 325 327 328 329 329 329 330 330 330 330 330 330 330 330 329 330 332 331 329 329 330 329 326 326 327 327 328 328 327 329 331 332
262 263 265 265 266 265 261 254 249 244 241 238 237 237 238 239 241 243 245 248 250 251 250 248 247 243 235 230 232 235 237 239 240 242 246 250 255 260 265 270 276 282 287 293 299 303 306 308 309 311 313 316 319 321 324 326 327 328 329 329 330 330 329 329 329 329 329 329 330 330 330 328 328 329 328 326 326 326 327 329 329 328 329 330 331
265 264 264 264 264 262 258 253 248 243 239 236 234 235 235 237 239 242 245 248 250 250 248 247 246 242 233 229 230 233 236 238 239 242 245 250 254 259 264 269 275 281 286 292 298 302 305 307 308 309 311 313 317 319 322 324 326 327 328 329 329 329 328 328 329 329 329 329 329 328 328 327 327 328 328 326 326 327 328 330 329 328 328 328 328
271 269 269 268 266 262 256 250 246 242 238 235 233 232 233 235 238 241 245 248 249 248 246 246 247 241 232 228 228 232 235 237 239 242 245 249 253 258 263 268 274 281 286 292 297 301 304 306 307 308 310 312 316 318 320 322 325 326 327 328 328 328 328 328 329 329 329 329 328 326 326 327 328 328 328 327 327 327 327 328 327 325 325 325 326
277 272 270 269 268 265 260 252 245 241 238 235 233 231 232 234 237 241 245 248 249 248 245 246 247 241 232 227 227 230 233 236 238 241 244 248 252 256 261 267 273 280 286 292 297 301 304 306 307 308 310 313 315 317 319 321 324 325 326 327 327 327 327 328 329 329 328 328 327 326 327 327 328 329 328 327 326 325 325 326 326 324 323 324 324
284 273 266 265 265 265 262 256 247 241 238 235 232 230 231 234 237 240 244 248 248 245 243 245 245 239 231 226 227 229 232 235 238 240 243 247 251 255 260 265 272 278 284 291 296 300 303 305 307 309 312 314 315 316 318 321 323 324 324 325 326 327 327 328 329 329 328 328 328 327 327 327 328 328 327 325 325 324 324 325 324 323 323 324 324
278 272 267 264 263 262 260 256 249 243 236 232 229 229 230 233 236 239 244 247 245 241 241 244 244 238 230 226 226 228 230 233 237 239 243 247 250 254 259 264 270 277 284 290 295 299 302 305 307 311 313 315 315 316 318 320 322 322 323 324 325 326 328 329 329 329 329 329 328 327 327 327 327 326 325 324 324 324 324 324 324 323 324 325 325
274 273 270 266 262 259 257 255 251 244 234 227 226 226 228 231 234 237 242 245 243 239 241 244 243 237 230 226 225 226 229 233 236 238 242 246 249 253 258 263 269 276 283 290 294 298 302 304 307 310 313 314 315 316 318 320 321 321 322 323 325 327 328 329 329 328 328 328 327 327 326 326 325 324 324 324 324 324 324 324 324 324 324 325 326
279 277 276 272 266 262 258 255 251 243 232 225 223 224 226 229 232 236 241 243 241 239 241 245 243 237 230 226 225 225 228 231 235 238 241 245 249 253 257 262 268 274 282 289 294 298 301 303 306 309 312 314 315 316 318 319 320 321 322 323 325 327 328 329 328 328 327 327 326 326 325 324 324 324 324 324 325 325 325 325 325 325 325 326 326
284 279 279 279 273 266 260 255 248 239 230 225 222 222 224 228 231 234 238 241 240 239 242 245 244 238 231 227 225 225 227 231 234 238 241 245 249 253 257 261 267 274 282 289 294 297 300 302 306 309 312 314 316 317 318 318 319 321 322 323 325 327 328 328 327 327 326 325 325 325 324 324 324 324 324 325 325 325 325 325 326 326 325 325 324
289 281 278 278 276 270 263 256 248 239 231 226 223 222 223 226 230 233 236 239 240 240 243 247 245 239 232 227 225 225 227 231 234 238 241 245 249 253 257 261 267 274 281 288 292 296 299 302 305 308 312 315 316 316 317 318 319 321 322 324 326 327 327 327 326 325 324 324 323 324 324 324 324 324 325 325 325 325 325 326 326 325 324 323 322
296 287 279 277 277 273 267 260 251 243 235 228 223 222 223 226 229 232 234 238 240 242 245 249 248 242 233 228 226 226 228 231 234 238 241 245 249 253 257 261 267 273 280 287 292 296 299 302 304 308 312 315 315 315 316 318 319 321 323 325 326 326 326 325 324 323 323 323 323 324 324 324 324 325 325 325 326 325 325 326 325 323 322 322 322
301 294 283 276 274 272 269 264 256 247 238 231 226 224 224 226 229 231 233 237 241 243 247 251 250 242 234 229 228 228 229 231 235 238 242 245 249 253 257 261 267 273 279 286 292 296 299 302 305 309 312 313 313 314 316 318 320 322 324 325 325 325 324 323 322 322 322 323 324 324 325 325 325 325 325 325 326 326 325 325 324 323 322 322 323
302 300 290 278 270 269 269 267 260 251 242 234 229 226 225 226 229 231 233 236 240 244 249 252 249 241 234 231 231 230 231 232 235 239 243 246 250 254 257 261 267 273 279 286 291 296 299 302 305 308 311 312 313 314 317 319 321 323 324 324 324 324 323 322 322 323 323 324 325 325 325 325 325 325 325 325 326 325 325 324 324 323 322 322 323
301 301 299 287 272 267 269 268 263 255 246 238 232 228 226 226 227 229 232 235 239 245 252 254 249 241 236 234 234 233 233 233 236 240 243 246 250 254 257 262 267 273 280 286 291 296 300 303 305 308 310 311 313 315 318 319 321 323 323 323 323 323 323 323 323 323 324 324 325 325 325 325 325 326 326 326 326 325 324 323 323 323 323 323 323
303 299 301 296 281 270 267 266 263 257 250 243 238 233 229 227 228 230 232 235 238 244 252 251 244 238 235 235 236 236 235 234 236 240 244 247 250 253 257 263 268 274 281 287 292 297 300 302 304 307 309 311 313 316 318 319 321 322 323 324 324 323 323 323 323 324 324 325 325 325 326 326 326 326 326 325 325 324 324 323 323 324 324 323 324
309 300 297 297 290 276 268 265 263 259 254 248 242 236 231 228 230 232 234 235 237 242 246 243 237 233 232 233 235 236 235 235 236 239 243 247 250 254 258 264 269 276 282 287 293 297 299 301 304 307 310 312 313 315 317 319 321 323 324 324 324 324 324 323 324 324 325 325 326 326 327 327 327 326 326 325 325 325 324 324 324 324 324 324 324
312 305 295 294 293 284 273 268 265 262 258 253 246 238 230 227 228 229 231 231 233 239 244 243 238 236 236 236 238 238 237 237 237 238 241 245 250 254 259 264 270 276 282 288 292 296 298 301 304 308 310 312 314 316 318 320 322 323 324 324 324 324 324 324 325 325 325 326 327 327 327 327 327 326 325 325 326 326 326 325 325 324 324 324 324
312 308 298 290 288 286 278 272 268 264 259 255 249 240 232 228 227 229 229 229 231 238 246 247 244 242 242 242 243 242 241 240 240 240 242 245 249 254 259 264 270 276 281 287 292 296 298 302 306 309 311 312 315 317 320 322 323 323 324 325 325 325 325 325 326 326 327 328 328 328 328 327 326 326 326 327 327 327 327 326 325 325 325 325 325
308 310 303 292 286 284 280 274 269 263 259 255 251 243 234 229 228 229 229 230 233 240 249 250 248 247 246 246 245 244 244 243 243 242 243 244 248 253 258 263 269 275 281 286 291 295 299 303 308 310 311 313 316 319 321 322 323 324 325 326 326 326 326 326 327 327 328 329 329 328 328 327 327 327 328 328 328 328 327 327 326 326 326 326 326
302 307 306 297 289 284 280 275 269 264 259 255 250 244 237 232 230 229 230 230 233 241 249 251 250 249 249 249 248 247 245 245 244 243 244 245 248 252 257 263 269 275 281 286 291 296 300 305 308 310 311 314 318 320 322 323 324 325 326 327 327 327 327 327 328 329 330 330 329 329 328 328 328 329 329 330 329 328 328 328 328 327 327 326 326
298 301 304 300 293 287 283 278 271 263 258 253 247 242 236 231 229 229 230 230 233 242 249 250 249 249 249 249 249 247 246 245 245 244 245 246 249 252 256 262 269 276 281 287 292 298 302 305 308 310 313 316 319 321 322 324 325 326 327 327 328 328 328 328 329 330 330 330 330 330 330 330 330 331 331 331 331 330 330 330 329 329 328 328 328
297 297 300 300 295 291 289 284 273 261 253 249 245 239 233 228 227 228 229 229 232 240 245 245 244 245 245 246 245 244 243 243 244 246 247 248 249 252 256 261 269 276 282 288 294 299 303 307 310 312 314 318 320 321 323 325 326 327 328 328 328 328 329 329 331 331 331 331 331 331 331 332 332 333 333 333 333 332 332 332 331 331 331 330 331
299 296 296 296 294 292 290 287 276 259 247 243 242 236 230 227 227 227 228 229 233 239 243 245 245 245 244 245 244 243 243 245 247 249 250 251 251 252 255 260 268 275 283 290 295 300 305 308 310 312 315 318 321 323 325 327 328 328 328 329 329 329 330 331 332 332 332 333 333 333 334 335 335 335 336 336 336 335 335 335 335 334 334 334 334
301 299 294 292 292 290 289 287 275 255 240 236 235 231 227 226 226 227 228 231 236 241 245 247 249 249 248 247 246 245 246 248 251 253 254 254 253 253 255 260 267 275 283 290 296 301 306 308 310 314 317 320 323 325 327 328 329 329 329 329 329 330 331 333 333 333 334 334 335 336 337 338 339 339 339 339 339 338 337 337 337 337 337 337 337
301 301 298 294 292 289 286 283 273 253 239 234 231 228 226 225 226 228 232 235 240 246 249 250 251 251 250 248 246 246 247 250 253 256 256 255 253 252 254 259 267 275 283 291 297 302 306 309 311 315 319 321 324 326 328 328 329 329 329 330 330 332 333 334 334 335 336 337 337 339 340 341 342 342 341 342 342 341 341 340 339 339 340 340 340
296 299 299 298 296 292 286 280 272 257 244 237 232 229 227 227 229 232 237 241 245 249 251 251 252 252 251 249 248 249 251 253 255 256 256 254 252 251 253 259 268 277 285 292 298 302 306 309 313 316 319 323 325 327 328 329 329 329 330 331 332 334 335 335 336 337 338 339 341 342 343 344 344 344 344 344 344 345 345 344 343 343 343 344 344
292 294 295 297 299 297 289 280 272 261 248 239 234 231 230 230 233 237 242 244 245 245 246 246 248 250 251 251 251 252 252 253 254 255 254 254 252 251 254 260 269 278 286 293 298 303 306 310 314 318 321 325 327 328 329 329 329 330 331 332 334 335 336 337 338 340 341 342 344 345 345 345 345 345 345 346 346 347 347 347 347 347 346 347 349
287 289 291 294 297 296 291 281 272 262 251 241 235 233 231 231 234 238 241 241 240 239 238 239 242 247 250 252 253 253 252 252 253 254 255 254 252 251 255 262 271 280 288 295 299 303 307 311 316 320 324 326 328 329 329 330 330 331 332 334 336 337 338 339 341 342 344 345 346 346 346 345 345 346 347 348 348 349 350 350 350 350 350 351 355
281 285 289 292 294 294 291 281 269 261 253 243 235 231 229 229 232 237 240 240 239 237 236 237 242 248 252 253 253 254 254 253 253 254 254 253 250 250 255 264 273 282 290 296 300 304 308 314 319 323 326 328 329 330 330 330 331 332 334 336 337 338 340 342 343 345 346 347 347 347 346 347 347 348 349 350 352 352 352 352 352 353 355 359 5
276 281 285 288 291 292 288 276 262 256 253 246 237 230 227 228 232 237 240 241 240 238 237 239 246 252 255 255 254 254 254 253 253 253 252 250 249 251 256 265 275 284 291 296 300 306 312 318 322 325 327 329 330 330 331 331 332 334 336 337 339 341 343 344 346 347 348 349 348 348 348 349 351 352 353 355 356 356 356 356 357 359 4 9 13
272 277 281 285 288 290 287 274 259 250 248 243 235 229 228 230 234 239 241 240 239 238 238 241 248 254 257 257 256 255 253 251 250 249 248 247 248 252 258 267 277 285 292 297 302 309 316 320 324 327 329 330 330 331 332 332 334 336 337 339 341 343 345 346 348 350 350 350 350 351 352 354 355 356 358 359 360 360 360 1 4 9 13 15 17
271 275 280 284 287 289 286 274 257 245 240 236 230 228 228 231 234 239 240 238 237 237 238 241 248 254 257 258 257 253 249 246 245 245 245 246 247 251 259 269 279 287 293 299 306 312 318 323 326 328 330 330 331 332 332 333 335 337 339 341 344 345 347 349 351 352 352 353 354 355 356 357 359 0 2 3 3 4 6 9 14 17 19 18 19
270 274 279 283 286 288 284 271 252 240 234 230 227 227 228 231 235 239 238 236 236 238 239 241 247 254 257 259 257 250 243 239 239 241 242 243 245 251 260 271 281 288 295 302 309 316 321 325 327 329 330 331 332 332 333 335 337 339 341 343 346 347 349 352 354 354 355 356 358 359 359 0 2 4 5 6 7 10 13 17 20 21 21 21 22
268 272 277 282 285 285 280 263 244 233 228 225 224 225 227 230 234 237 236 235 236 239 239 241 248 255 259 260 255 247 237 233 234 237 238 238 242 251 262 273 282 290 298 305 313 319 323 326 329 330 331 332 333 333 335 337 339 341 343 345 348 350 352 354 356 357 358 360 1 1 2 3 5 7 8 11 14 17 20 22 24 23 23 25 27
267 272 278 282 284 283 275 256 238 228 225 223 224 225 227 231 234 236 235 235 236 238 238 241 249 256 260 259 253 242 234 230 230 231 231 234 241 252 264 275 285 292 301 309 316 321 325 328 330 331 332 333 333 335 337 339 341 343 345 348 350 352 354 357 359 1 2 3 3 4 5 6 8 11 13 16 20 22 24 25 25 25 27 29 30
268 273 277 281 284 281 267 246 232 226 224 223 225 227 228 231 234 235 233 234 236 235 235 240 250 258 261 258 250 237 229 226 225 225 226 232 242 254 267 278 287 295 304 313 319 323 327 329 331 332 333 333 335 337 339 341 343 345 347 350 352 354 357 360 2 4 5 5 6 6 8 9 12 15 18 20 23 24 25 26 26 28 30 31 32
269 274 278 281 283 275 254 233 225 223 222 223 225 226 228 230 232 232 231 232 233 231 232 241 252 261 263 257 243 229 222 220 219 220 224 232 244 257 269 280 290 299 309 316 322 325 328 330 332 333 333 335 336 338 340 342 344 346 349 352 354 357 360 2 4 5 6 7 7 8 10 12 15 18 20 23 24 25 26 27 29 31 32 33 34
270 276 279 280 277 263 240 224 220 221 222 223 224 225 226 228 228 228 229 229 226 225 231 242 254 262 263 250 230 218 216 216 216 218 224 234 246 259 272 283 293 304 313 319 324 327 329 331 333 334 334 336 338 340 342 344 346 348 351 354 357 360 2 4 6 7 7 8 9 10 12 15 18 20 22 23 25 26 27 30 32 34 34 35 35